Home   Weather   Boston   Past weeks
Flag for USA

Past Weather in Boston, Massachusetts, USA — Yesterday and Last 2 Weeks

Now
27 °F

Partly sunny.


Feels Like: 11 °F
Forecast: 26 / 32 °F
Wind: 30 mph from Northwest

Location: Logan International Airport

Current Time: Dec 18, 2018 at 10:12:15 am

Latest Report: Dec 18, 2018 at 8:54 am


Visibility: 10 mi

Pressure: 29.80 "Hg

Humidity: 49%

Dew Point: 10 °F

Location of BostonLocation

Past Weather in Boston — Graph

°F

Boston Temperature Yesterday

Maximum temperature yesterday: 43 °F (at 5:54 pm)
Minimum temperature yesterday: 36 °F (at 4:44 am)
Average temperature yesterday: 39 °F

High & Low Weather Summary for the Past Weeks

 TemperatureHumidityPressure
High57 °F (Dec 3, 10:54 am)96% (Dec 3, 7:21 am)30.58 "Hg (Dec 3, 7:21 am)
Low20 °F (Dec 8, 6:54 am)21% (Dec 8, 1:54 pm)29.49 "Hg (Dec 3, 12:54 pm)
Average36 °F57%30.08 "Hg
* Reported Dec 3 7:21 am — Dec 18 7:54 am, Boston. Weather by CustomWeather, © 2018

Note: Actual official high and low records may vary slightly from our data, if they occured in-between our weather recording intervals... More about our weather records

Advertising

Boston Weather History for the Previous 24 Hours

Scroll right to see more
 ConditionsComfort  
Time TempWeatherWind HumidityBarometerVisibility
7:54 am
Tue, Dec 18
26 °FBroken clouds.26 mph48%29.77 "Hg10 mi
6:54 am27 °FPassing clouds.23 mph46%29.73 "Hg10 mi
5:54 am26 °FPassing clouds.23 mph48%29.71 "Hg10 mi
4:54 am26 °FMostly cloudy.30 mph48%29.67 "Hg10 mi
3:54 am29 °FMostly cloudy.29 mph47%29.65 "Hg10 mi
2:54 am32 °FOvercast.26 mph47%29.61 "Hg10 mi
1:54 am34 °FMostly cloudy.21 mph50%29.58 "Hg10 mi
1:35 am34 °FMostly cloudy.22 mph59%29.57 "Hg9 mi
1:15 am34 °FLight snow. Mostly cloudy.17 mph82%29.57 "Hg1 mi
1:01 am35 °FLight snow. Mostly cloudy.22 mph78%29.55 "Hg1 mi
11:54 pm
Mon, Dec 17
39 °FOvercast.17 mph62%29.54 "Hg10 mi
10:54 pm39 °FOvercast.14 mph65%29.55 "Hg10 mi
9:54 pm39 °FPassing clouds.16 mph65%29.56 "Hg10 mi
8:54 pm39 °FPassing clouds.14 mph62%29.56 "Hg10 mi
7:54 pm39 °FPassing clouds.12 mph62%29.56 "Hg10 mi
6:54 pm40 °FPassing clouds.16 mph63%29.56 "Hg10 mi
5:54 pm43 °FOvercast.15 mph60%29.54 "Hg10 mi
4:54 pm41 °FPassing clouds.15 mph67%29.52 "Hg10 mi
3:54 pm42 °FPartly sunny.17 mph65%29.52 "Hg10 mi
2:54 pm42 °FBroken clouds.12 mph68%29.52 "Hg10 mi
2:20 pm42 °FOvercast.13 mph68%29.52 "Hg10 mi
1:54 pm42 °FCloudy.18 mph71%29.52 "Hg10 mi
1:19 pm42 °FPartly sunny.10 mph73%29.54 "Hg10 mi
12:54 pm41 °FPartly sunny.12 mph80%29.54 "Hg10 mi
11:54 am39 °FOvercast.14 mph82%29.57 "Hg10 mi
10:54 am38 °FOvercast.13 mph83%29.58 "Hg10 mi
10:12 am38 °FOvercast.12 mph83%29.62 "Hg10 mi
Weather by CustomWeather, © 2018

See weather overview